Flag for Canada Weather past 2 weeks in Conception Bay South, Newfoundland and Labrador, Canada

Now
79 °F

Scattered clouds.


Feels Like: 79 °F
Forecast: 59 / 76 °F
Wind: 13 mph from Northwest

Location: St. John's

Current Time: Jul 22, 2014 at 7:42:11 PM

Latest Report: Jul 22, 2014 at 2:30 PM


Visibility: 15 mi

Pressure: 29.98 "Hg

Humidity: 34%

Dew point: 48 °F

Location of Conception Bay SouthLocation

Historic Weather in Conception Bay South — Graph

°F

Conception Bay South temperature yesterday

Maximum temperature yesterday: 84 °F (at 2:30 PM)
Minimum temperature yesterday: 59 °F (at 4:30 AM)
Average temperature yesterday: 71 °F

Past Weeks' High & Low Weather Summary

 TemperatureHumidityPressure
High84 °F (Jul 21, 2:30 PM)100% (Jul 8, 5:30 AM)30.26 "Hg (Jul 8, 5:30 AM)
Low48 °F (Jul 20, 1:30 AM)27% (Jul 21, 3:30 PM)29.78 "Hg (Jul 7, 1:30 PM)
Average68 °F78%30.05 "Hg
* Reported Jul 7 1:30 PM — Jul 22 1:30 PM, Conception Bay South, Weather by CustomWeather, © 2014

Note: Actual official high and low records may vary slightly from our data, if they occured in-between our weather recording intervals... More about our weather records

Advertising

Conception Bay South weather history for July 13, 2014

 ConditionsComfort  
Time TempWeatherWind HumidityBarometerVisibility
12:30 AM
Jul 13
61 °FPassing clouds.14 mph72%30.15 "Hg15 mi
1:30 AM59 °FPassing clouds.13 mph72%30.14 "Hg15 mi
2:30 AM59 °FPassing clouds.15 mph72%30.14 "Hg15 mi
3:30 AM59 °FPassing clouds.15 mph72%30.14 "Hg15 mi
4:30 AM57 °FPassing clouds.14 mph77%30.14 "Hg15 mi
5:30 AM57 °FPassing clouds.10 mph77%30.13 "Hg15 mi
6:30 AM59 °FPartly sunny.12 mph77%30.13 "Hg15 mi
7:30 AM61 °FPartly sunny.14 mph72%30.13 "Hg15 mi
8:30 AM63 °FPartly sunny.7 mph73%30.14 "Hg15 mi
9:30 AM64 °FPartly sunny.8 mph68%30.14 "Hg15 mi
10:30 AM72 °FPartly sunny.6 mph61%30.13 "Hg15 mi
11:30 AM75 °FPartly sunny.8 mph50%30.12 "Hg15 mi
12:30 PM79 °FPartly sunny.7 mph48%30.10 "Hg15 mi
1:30 PM79 °FScattered clouds.12 mph45%30.08 "Hg15 mi
2:30 PM77 °FScattered clouds.10 mph47%30.07 "Hg15 mi
3:30 PM75 °FScattered clouds.10 mph54%30.06 "Hg15 mi
4:30 PM77 °FScattered clouds.10 mph47%30.04 "Hg15 mi
5:30 PM77 °FScattered clouds.12 mph44%30.03 "Hg15 mi
6:30 PM75 °FPassing clouds.10 mph47%30.02 "Hg15 mi
7:30 PM73 °FPassing clouds.12 mph50%30.04 "Hg15 mi
8:30 PM68 °FPassing clouds.9 mph60%30.04 "Hg15 mi
9:30 PM64 °FPassing clouds.10 mph64%30.05 "Hg15 mi
10:30 PM63 °FPassing clouds.14 mph68%30.06 "Hg15 mi
11:30 PM61 °FPassing clouds.13 mph72%30.04 "Hg15 mi
Weather by CustomWeather, © 2014

See weather overviewHow to use our weather pages